| time (UTC) | temp F | wind direction | speed MPH | gust MPH | rain 1hr in | rain 24hr in | rain mn in | humidity % | barometer mb |
| 20260508070057 | 42 | 138 | 4.0 | 7.0 | 0.00 | 0.00 | 0.00 | 46 | 1012.6 |
| 20260508064601 | 40 | 129 | 4.0 | 5.0 | 0.00 | 0.00 | 0.00 | 48 | 1012.7 |
| 20260508063054 | 40 | 111 | 5.0 | 6.0 | 0.00 | 0.00 | 0.00 | 48 | 1012.7 |
| 20260508061556 | 41 | 105 | 4.0 | 8.0 | 0.00 | 0.00 | 0.00 | 46 | 1012.8 |
| 20260508060051 | 43 | 105 | 5.0 | 7.0 | 0.00 | 0.00 | 0.00 | 44 | 1012.9 |
| 20260508054548 | 44 | 87 | 7.0 | 9.0 | 0.00 | 0.00 | 0.00 | 41 | 1012.9 |
| 20260508053042 | 45 | 86 | 7.0 | 9.0 | 0.00 | 0.00 | 0.00 | 40 | 1013.0 |
| 20260508051541 | 46 | 78 | 5.0 | 9.0 | 0.00 | 0.00 | 0.00 | 37 | 1012.9 |
| 20260508050037 | 46 | 90 | 6.0 | 9.0 | 0.00 | 0.00 | 0.00 | 37 | 1013.1 |
| 20260508044536 | 47 | 89 | 5.0 | 8.0 | 0.00 | 0.00 | 0.00 | 37 | 1013.2 |
| 20260508043034 | 47 | 74 | 4.0 | 10.0 | 0.00 | 0.00 | 0.00 | 36 | 1013.1 |
| 20260508041533 | 47 | 70 | 5.0 | 9.0 | 0.00 | 0.00 | 0.00 | 37 | 1013.2 |
| 20260508040038 | 47 | 87 | 3.0 | 6.0 | 0.00 | 0.00 | 0.00 | 38 | 1013.1 |
| 20260508034532 | 46 | 91 | 4.0 | 6.0 | 0.00 | 0.00 | 0.00 | 38 | 1013.0 |
| 20260508033033 | 42 | 91 | 4.0 | 7.0 | 0.00 | 0.00 | 0.00 | 43 | 1013.1 |
| 20260508031532 | 41 | 42 | 1.0 | 3.0 | 0.00 | 0.00 | 0.00 | 49 | 1013.1 |
| 20260508030032 | 40 | 38 | 1.0 | 3.0 | 0.00 | 0.00 | 0.00 | 53 | 1012.9 |
| 20260508024542 | 41 | 38 | 1.0 | 4.0 | 0.00 | 0.00 | 0.00 | 54 | 1012.9 |
| 20260508023030 | 43 | 39 | 2.0 | 4.0 | 0.00 | 0.00 | 0.00 | 49 | 1012.8 |
| 20260508021528 | 42 | 24 | 3.0 | 4.0 | 0.00 | 0.00 | 0.00 | 52 | 1012.7 |
| 20260508020027 | 46 | 24 | 0.0 | 2.0 | 0.00 | 0.00 | 0.00 | 45 | 1012.5 |
| 20260508014543 | 48 | 24 | 3.0 | 4.0 | 0.00 | 0.00 | 0.00 | 40 | 1012.3 |
| 20260508013025 | 49 | 17 | 3.0 | 4.0 | 0.00 | 0.00 | 0.00 | 36 | 1012.3 |
| 20260508011525 | 53 | 14 | 3.0 | 5.0 | 0.00 | 0.00 | 0.00 | 31 | 1012.3 |
| 20260508010030 | 55 | 24 | 2.0 | 5.0 | 0.00 | 0.00 | 0.00 | 30 | 1012.2 |
| 20260508004528 | 57 | 5 | 2.0 | 8.0 | 0.00 | 0.00 | 0.00 | 28 | 1012.0 |
| 20260508003048 | 57 | 360 | 4.0 | 11.0 | 0.00 | 0.00 | 0.00 | 27 | 1011.9 |
| 20260508001524 | 58 | 290 | 9.0 | 13.0 | 0.00 | 0.00 | 0.00 | 26 | 1011.9 |
| 20260508000023 | 58 | 336 | 4.0 | 10.0 | 0.00 | 0.00 | 0.00 | 26 | 1011.8 |
| 20260507234522 | 59 | 329 | 8.0 | 14.0 | 0.00 | 0.00 | 0.00 | 26 | 1012.0 |
| 20260507233031 | 59 | 348 | 10.0 | 15.0 | 0.00 | 0.00 | 0.00 | 26 | 1011.9 |
| 20260507231520 | 59 | 321 | 9.0 | 14.0 | 0.00 | 0.00 | 0.00 | 26 | 1012.0 |
| 20260507230019 | 60 | 304 | 6.0 | 18.0 | 0.00 | 0.00 | 0.00 | 27 | 1012.1 |
| 20260507224518 | 60 | 286 | 10.0 | 19.0 | 0.00 | 0.00 | 0.00 | 26 | 1012.1 |
| 20260507223018 | 60 | 327 | 9.0 | 16.0 | 0.00 | 0.00 | 0.00 | 26 | 1012.0 |
| 20260507221516 | 60 | 321 | 11.0 | 19.0 | 0.00 | 0.00 | 0.00 | 25 | 1012.0 |
| 20260507220015 | 60 | 304 | 10.0 | 18.0 | 0.00 | 0.00 | 0.00 | 26 | 1012.0 |
| 20260507214514 | 59 | 310 | 10.0 | 18.0 | 0.00 | 0.00 | 0.00 | 27 | 1012.2 |
| 20260507213014 | 60 | 296 | 10.0 | 16.0 | 0.00 | 0.00 | 0.00 | 26 | 1012.1 |
| 20260507211514 | 59 | 307 | 7.0 | 19.0 | 0.00 | 0.00 | 0.00 | 29 | 1012.1 |
| 20260507210011 | 59 | 305 | 5.0 | 16.0 | 0.00 | 0.00 | 0.00 | 29 | 1012.3 |
| 20260507204507 | 59 | 271 | 9.0 | 19.0 | 0.00 | 0.00 | 0.00 | 30 | 1012.4 |
| 20260507203012 | 59 | 294 | 12.0 | 18.0 | 0.00 | 0.00 | 0.00 | 30 | 1012.5 |
| 20260507201505 | 58 | 345 | 10.0 | 18.0 | 0.00 | 0.00 | 0.00 | 30 | 1012.7 |
| 20260507200004 | 59 | 265 | 12.0 | 19.0 | 0.00 | 0.00 | 0.00 | 33 | 1012.8 |
| 20260507194605 | 59 | 286 | 12.0 | 21.0 | 0.00 | 0.00 | 0.00 | 32 | 1012.9 |
| 20260507193004 | 58 | 314 | 12.0 | 23.0 | 0.00 | 0.00 | 0.00 | 33 | 1012.9 |
| 20260507191600 | 58 | 295 | 16.0 | 20.0 | 0.00 | 0.00 | 0.00 | 35 | 1013.0 |
| 20260507190059 | 56 | 305 | 11.0 | 17.0 | 0.00 | 0.00 | 0.00 | 34 | 1013.1 |
| 20260507184558 | 57 | 307 | 7.0 | 16.0 | 0.00 | 0.00 | 0.00 | 35 | 1013.0 |
| 20260507183059 | 57 | 319 | 9.0 | 15.0 | 0.00 | 0.00 | 0.00 | 35 | 1013.0 |
| 20260507181555 | 57 | 329 | 8.0 | 17.0 | 0.00 | 0.00 | 0.00 | 38 | 1013.1 |
| 20260507180051 | 56 | 281 | 5.0 | 15.0 | 0.00 | 0.00 | 0.00 | 42 | 1013.4 |
| 20260507174551 | 56 | 288 | 7.0 | 17.0 | 0.00 | 0.00 | 0.00 | 41 | 1013.4 |
| 20260507173047 | 55 | 308 | 6.0 | 14.0 | 0.00 | 0.00 | 0.00 | 44 | 1013.7 |
| 20260507171545 | 55 | 332 | 6.0 | 12.0 | 0.00 | 0.00 | 0.00 | 40 | 1013.9 |
| 20260507170043 | 54 | 20 | 6.0 | 17.0 | 0.00 | 0.00 | 0.00 | 40 | 1013.9 |
| 20260507164539 | 53 | 325 | 4.0 | 11.0 | 0.00 | 0.00 | 0.00 | 46 | 1014.0 |
| 20260507163037 | 53 | 330 | 3.0 | 17.0 | 0.00 | 0.00 | 0.00 | 40 | 1014.2 |
| 20260507161534 | 54 | 341 | 4.0 | 12.0 | 0.00 | 0.00 | 0.00 | 44 | 1014.3 |
| 20260507160037 | 53 | 49 | 8.0 | 12.0 | 0.00 | 0.00 | 0.00 | 43 | 1014.3 |
| 20260507154530 | 52 | 355 | 4.0 | 13.0 | 0.00 | 0.00 | 0.00 | 45 | 1014.2 |
| 20260507153032 | 51 | 74 | 6.0 | 14.0 | 0.00 | 0.00 | 0.00 | 45 | 1014.3 |
| 20260507151523 | 51 | 50 | 10.0 | 15.0 | 0.00 | 0.00 | 0.00 | 44 | 1014.4 |
| 20260507150021 | 50 | 32 | 8.0 | 14.0 | 0.00 | 0.00 | 0.00 | 45 | 1014.4 |
| 20260507144519 | 49 | 20 | 9.0 | 15.0 | 0.00 | 0.00 | 0.00 | 48 | 1014.4 |
| 20260507143016 | 48 | 19 | 9.0 | 15.0 | 0.00 | 0.00 | 0.00 | 49 | 1014.4 |
| 20260507141510 | 46 | 55 | 10.0 | 15.0 | 0.00 | 0.00 | 0.00 | 55 | 1014.5 |
| 20260507140006 | 44 | 32 | 9.0 | 14.0 | 0.00 | 0.00 | 0.00 | 57 | 1014.9 |
| 20260507134503 | 42 | 47 | 7.0 | 11.0 | 0.00 | 0.00 | 0.00 | 59 | 1015.2 |
| 20260507133003 | 43 | 331 | 5.0 | 9.0 | 0.00 | 0.00 | 0.00 | 59 | 1015.5 |
| 20260507131604 | 44 | 36 | 6.0 | 9.0 | 0.00 | 0.00 | 0.00 | 59 | 1014.8 |
| 20260507130057 | 42 | 38 | 2.0 | 5.0 | 0.00 | 0.00 | 0.00 | 61 | 1015.1 |
| 20260507124553 | 41 | 120 | 2.0 | 7.0 | 0.00 | 0.00 | 0.00 | 63 | 1014.8 |
| 20260507123049 | 39 | 130 | 5.0 | 8.0 | 0.00 | 0.00 | 0.00 | 65 | 1014.6 |
| 20260507121545 | 38 | 125 | 6.0 | 8.0 | 0.00 | 0.00 | 0.00 | 64 | 1014.8 |
| 20260507120041 | 38 | 98 | 5.0 | 10.0 | 0.00 | 0.00 | 0.00 | 64 | 1015.0 |
| 20260507114536 | 36 | 56 | 4.0 | 9.0 | 0.00 | 0.00 | 0.00 | 69 | 1015.2 |
| 20260507113039 | 35 | 66 | 4.0 | 6.0 | 0.00 | 0.00 | 0.00 | 69 | 1015.1 |
| 20260507111530 | 34 | 94 | 5.0 | 7.0 | 0.00 | 0.00 | 0.00 | 70 | 1014.9 |
| 20260507110029 | 33 | 105 | 3.0 | 6.0 | 0.00 | 0.00 | 0.00 | 71 | 1015.0 |
| 20260507104528 | 33 | 110 | 3.0 | 7.0 | 0.00 | 0.00 | 0.00 | 69 | 1015.2 |
| 20260507103026 | 34 | 106 | 4.0 | 7.0 | 0.00 | 0.00 | 0.00 | 67 | 1015.5 |
| 20260507101536 | 34 | 102 | 5.0 | 7.0 | 0.00 | 0.00 | 0.00 | 68 | 1015.6 |
| 20260507100029 | 33 | 76 | 3.0 | 4.0 | 0.00 | 0.00 | 0.00 | 68 | 1016.0 |
| 20260507094618 | 34 | 76 | 2.0 | 4.0 | 0.00 | 0.00 | 0.00 | 68 | 1016.1 |
| 20260507093020 | 33 | 17 | 2.0 | 3.0 | 0.00 | 0.00 | 0.00 | 68 | 1016.5 |
| 20260507091533 | 32 | 17 | 2.0 | 4.0 | 0.00 | 0.00 | 0.00 | 70 | 1016.7 |
| 20260507090015 | 33 | 17 | 0.0 | 2.0 | 0.00 | 0.00 | 0.00 | 72 | 1016.7 |
| 20260507084512 | 34 | 17 | 1.0 | 3.0 | 0.00 | 0.00 | 0.00 | 69 | 1016.8 |
| 20260507083014 | 35 | 17 | 0.0 | 2.0 | 0.00 | 0.00 | 0.00 | 69 | 1016.9 |
| 20260507081509 | 36 | 17 | 0.0 | 2.0 | 0.00 | 0.00 | 0.00 | 66 | 1017.0 |
| 20260507080008 | 35 | 17 | 2.0 | 3.0 | 0.00 | 0.00 | 0.00 | 67 | 1017.0 |
| 20260507074510 | 35 | 17 | 1.0 | 3.0 | 0.00 | 0.00 | 0.00 | 70 | 1017.1 |
| 20260507073005 | 35 | 17 | 0.0 | 1.0 | 0.00 | 0.00 | 0.00 | 67 | 1017.1 |
| 20260507071507 | 35 | 17 | 1.0 | 2.0 | 0.00 | 0.00 | 0.00 | 66 | 1017.1 |